This is the latest recevied weather packets stored in our database for station/object OZ0AJ-13. If no packets are shown the sender has not sent any weather packets the latest 10 day(s).
| Time | Temp. | Humidity | Pressure | Rain* | Wind** | Luminosity | Snow |
|---|---|---|---|---|---|---|---|
| 1777558231 | 17.22° C | 37% | 1031.6 hPa | 0 mm | - | - | - |
| 1777557627 | 17.78° C | 37% | 1031.6 hPa | 0 mm | - | - | - |
| 1777557023 | 16.67° C | 38% | 1031.7 hPa | 0 mm | - | - | - |
| 1777556419 | 17.22° C | 37% | 1031.9 hPa | 0 mm | - | - | - |
| 1777555835 | 16.67° C | 36% | 1031.9 hPa | 0 mm | - | - | - |
| 1777555231 | 17.22° C | 35% | 1031.9 hPa | 0 mm | - | - | - |
| 1777554627 | 17.22° C | 35% | 1032 hPa | 0 mm | - | - | - |
| 1777554023 | 16.67° C | 37% | 1032 hPa | 0 mm | - | - | - |
| 1777553420 | 16.11° C | 37% | 1032.1 hPa | 0 mm | - | - | - |
| 1777552816 | 16.67° C | 36% | 1032.1 hPa | 0 mm | - | - | - |
| 1777552232 | 16.67° C | 36% | 1032.4 hPa | 0 mm | - | - | - |
| 1777551628 | 16.67° C | 35% | 1032.4 hPa | 0 mm | - | - | - |
| 1777551024 | 15.56° C | 36% | 1032.4 hPa | 0 mm | - | - | - |
| 1777550420 | 14.44° C | 39% | 1032.5 hPa | 0 mm | - | - | - |
| 1777549816 | 14.44° C | 38% | 1032.5 hPa | 0 mm | - | - | - |
| 1777549232 | 15° C | 39% | 1032.6 hPa | 0 mm | - | - | - |
| 1777548628 | 14.44° C | 41% | 1032.5 hPa | 0 mm | - | - | - |
| 1777548024 | 15° C | 42% | 1032.6 hPa | 0 mm | - | - | - |
| 1777547421 | 14.44° C | 45% | 1032.5 hPa | 0 mm | - | - | - |
| 1777546817 | 14.44° C | 44% | 1032.5 hPa | 0 mm | - | - | - |
| 1777546233 | 15° C | 42% | 1032.5 hPa | 0 mm | - | - | - |
| 1777545629 | 15° C | 42% | 1032.7 hPa | 0 mm | - | - | - |
| 1777545025 | 15° C | 43% | 1032.7 hPa | 0 mm | - | - | - |
| 1777544421 | 15° C | 41% | 1032.6 hPa | 0 mm | - | - | - |
| 1777543818 | 14.44° C | 41% | 1032.8 hPa | 0 mm | - | - | - |
* Rain latest hour (hover to see other rain measurements)
** Current wind speed in m/s (hover to see current wind gust speed)